EW9923 Weather Reports


time (UTC)temp
C
wind
direction
speed
KPH
gust
KPH
rain 1hr
cm
rain 24hr
cm
rain mn
cm
humidity
%
barometer
mb
20200229094317 15 0.0 0.0 0.00 0.03 0.00 92 1011.6
20200229093317 14 0.0 0.0 0.00 0.03 0.00 91 1011.6
20200229092317 14 0.0 0.0 0.00 0.03 0.00 92 1011.7
20200229091317 14 0.0 0.0 0.00 0.03 0.00 91 1011.9
20200229090317 14 0.0 0.0 0.00 0.03 0.00 91 1012.1
20200229085317 14 0.0 0.0 0.00 0.03 0.00 92 1012.2
20200229084317 14 0.0 0.0 0.00 0.03 0.00 92 1012.2
20200229083317 14 0.0 0.0 0.00 0.03 0.00 92 1012.4
20200229082317 14 0.0 0.0 0.00 0.03 0.00 92 1012.6
20200229081317 14 0.0 0.0 0.00 0.03 0.00 92 1012.7
20200229080317 13 0.0 0.0 0.00 0.03 0.00 92 1012.7
20200229075317 13 0.0 0.0 0.00 0.03 0.00 92 1012.8
20200229074317 13 0.0 0.0 0.00 0.03 0.00 91 1012.7
20200229073317 14 0.0 0.0 0.00 0.03 0.00 92 1012.8
20200229072317 14 0.0 0.0 0.00 0.03 0.00 91 1012.8
20200229071317 14 0.0 0.0 0.00 0.03 0.00 91 1012.8
20200229070316 14 0.0 0.0 0.00 0.03 0.00 90 1012.7
20200229065317 14 0.0 0.0 0.00 0.03 0.03 90 1012.7
20200229064317 15 0.0 0.0 0.00 0.03 0.03 89 1012.8
20200229063317 15 0.0 0.0 0.00 0.03 0.03 89 1012.9
20200229062317 15 0.0 0.0 0.00 0.03 0.03 88 1012.9
20200229061317 15 0.0 0.0 0.00 0.03 0.03 88 1013.0
20200229060318 15 0.0 0.0 0.00 0.03 0.03 88 1013.1
20200229055317 15 0.0 0.0 0.00 0.03 0.03 89 1013.2
20200229054317 15 0.0 0.0 0.00 0.03 0.03 87 1012.9
20200229053317 16 0.0 0.0 0.00 0.03 0.03 89 1012.8
20200229052317 15 0.0 0.0 0.00 0.03 0.03 89 1012.7
20200229051317 15 0.0 0.0 0.00 0.03 0.03 90 1012.8
20200229050317 15 0.0 0.0 0.00 0.03 0.03 89 1012.8
20200229045317 15 0.0 0.0 0.00 0.03 0.03 88 1012.8
20200229044317 16 0.0 0.0 0.00 0.03 0.03 88 1012.7
20200229043317 16 0.0 0.0 0.00 0.03 0.03 88 1012.8
20200229042317 16 0.0 0.0 0.00 0.03 0.03 88 1012.8
20200229041317 16 0.0 0.0 0.00 0.03 0.03 87 1012.8
20200229040317 16 0.0 0.0 0.00 0.03 0.03 87 1012.8
20200229035317 16 0.0 0.0 0.00 0.03 0.03 86 1012.7
20200229034317 16 0.0 0.0 0.00 0.03 0.03 85 1012.7
20200229033318 17 0.0 0.0 0.00 0.03 0.03 85 1012.8
20200229032317 17 0.0 0.0 0.00 0.03 0.03 83 1012.8
20200229031317 17 0.0 0.0 0.00 0.03 0.03 81 1012.9
20200229030317 18 0.0 0.0 0.00 0.03 0.03 80 1012.8
20200229025317 18 0.0 0.0 0.00 0.03 0.03 77 1012.7
20200229024316 19 0.0 0.0 0.00 0.03 0.03 75 1012.5
20200229023316 20 0.0 0.0 0.00 0.03 0.03 73 1012.2
20200229022317 20 0.0 0.0 0.00 0.03 0.03 74 1012.1
20200229021317 20 0.0 0.0 0.00 0.03 0.03 73 1012.1
20200229020317 20 0.0 0.0 0.00 0.03 0.03 74 1012.1
20200229015317 20 0.0 0.0 0.00 0.03 0.03 73 1012.0
20200229014317 21 0.0 0.0 0.00 0.03 0.03 72 1011.9
20200229013316 21 0.0 0.0 0.00 0.03 0.03 70 1011.8
20200229012317 22 0.0 0.0 0.00 0.03 0.03 68 1011.8
20200229011316 22 0.0 0.0 0.00 0.03 0.03 67 1011.7
20200229010316 23 0.0 0.0 0.00 0.03 0.03 64 1011.7
20200229005316 24 0.0 0.0 0.00 0.03 0.03 62 1011.6
20200229004316 25 0.0 0.0 0.00 0.03 0.03 60 1011.6
20200229003317 25 0.0 0.0 0.00 0.03 0.03 59 1011.4
20200229002316 26 0.0 0.0 0.00 0.03 0.03 59 1011.2
20200229001316 26 0.0 0.0 0.00 0.03 0.03 58 1011.0
20200229000317 27 0.0 0.0 0.00 0.03 0.03 57 1010.9
20200228235316 27 0.0 0.0 0.00 0.03 0.03 58 1010.9
20200228234316 28 0.0 0.0 0.00 0.03 0.03 59 1010.7
20200228233316 28 0.0 0.0 0.00 0.03 0.03 56 1010.6
20200228232316 28 0.0 0.0 0.00 0.03 0.03 56 1010.5
20200228231316 28 0.0 0.0 0.00 0.03 0.03 58 1010.5
20200228230316 29 0.0 0.0 0.00 0.03 0.03 57 1010.4
20200228225316 29 0.0 0.0 0.00 0.03 0.03 56 1010.2
20200228224316 30 0.0 0.0 0.00 0.03 0.03 56 1010.2
20200228223317 30 0.0 0.0 0.00 0.03 0.03 55 1010.1
20200228222317 30 0.0 0.0 0.00 0.03 0.03 56 1010.3
20200228221316 30 0.0 0.0 0.00 0.03 0.03 57 1010.3
20200228220316 30 0.0 0.0 0.00 0.03 0.03 54 1010.3
20200228215316 30 0.0 0.0 0.00 0.03 0.03 56 1010.4
20200228214316 30 0.0 0.0 0.00 0.03 0.03 53 1010.6
20200228213316 30 0.0 0.0 0.00 0.03 0.03 53 1010.6
20200228212316 30 0.0 0.0 0.00 0.03 0.03 54 1010.8
20200228211316 30 0.0 0.0 0.00 0.03 0.03 56 1011.0
20200228210316 30 0.0 0.0 0.00 0.03 0.03 53 1011.1
20200228205316 29 0.0 0.0 0.00 0.03 0.03 53 1011.3
20200228204316 29 0.0 0.0 0.00 0.03 0.03 52 1011.5
20200228203316 29 0.0 0.0 0.00 0.03 0.03 55 1011.7
20200228202316 29 0.0 0.0 0.00 0.03 0.03 54 1011.8
20200228201316 29 0.0 0.0 0.00 0.03 0.03 54 1011.9
20200228200316 28 0.0 0.0 0.00 0.03 0.03 55 1012.0
20200228195316 28 0.0 0.0 0.00 0.03 0.03 55 1012.1
20200228194316 28 0.0 0.0 0.00 0.03 0.03 58 1012.3
20200228193316 28 0.0 0.0 0.00 0.03 0.03 58 1012.5
20200228192316 28 0.0 0.0 0.00 0.03 0.03 59 1012.7
20200228191316 27 0.0 0.0 0.00 0.03 0.03 61 1012.8
20200228190316 27 0.0 0.0 0.00 0.03 0.03 60 1013.0
20200228185316 27 0.0 0.0 0.00 0.03 0.03 62 1013.2
20200228184316 27 0.0 0.0 0.00 0.03 0.03 61 1013.4
20200228183316 27 0.0 0.0 0.00 0.03 0.03 62 1013.6
20200228182316 26 0.0 0.0 0.00 0.03 0.03 61 1013.7
20200228181316 26 0.0 0.0 0.00 0.03 0.03 62 1013.7
20200228180316 26 0.0 0.0 0.00 0.03 0.03 63 1013.7
20200228175316 25 0.0 0.0 0.00 0.03 0.03 63 1013.8
20200228174316 25 0.0 0.0 0.00 0.03 0.03 65 1013.8
20200228173316 25 0.0 0.0 0.00 0.03 0.03 64 1013.8
20200228172316 25 0.0 0.0 0.00 0.03 0.03 66 1013.9
20200228171316 24 0.0 0.0 0.00 0.03 0.03 69 1014.0
20200228170316 23 0.0 0.0 0.00 0.03 0.03 68 1014.1
20200228165316 23 0.0 0.0 0.00 0.03 0.03 70 1014.1
20200228164316 23 0.0 0.0 0.00 0.03 0.03 70 1014.3
20200228163318 23 0.0 0.0 0.00 0.03 0.03 73 1014.3
20200228162315 22 0.0 0.0 0.00 0.03 0.03 76 1014.3
20200228161317 22 0.0 0.0 0.00 0.03 0.03 75 1014.2
20200228160315 21 0.0 0.0 0.00 0.03 0.03 77 1014.0
20200228155315 21 0.0 0.0 0.00 0.03 0.03 80 1013.9
20200228154318 20 0.0 0.0 0.00 0.03 0.03 82 1013.8
20200228153318 19 0.0 0.0 0.00 0.03 0.03 85 1013.7
20200228152318 18 0.0 0.0 0.00 0.03 0.03 87 1013.7
20200228151317 18 0.0 0.0 0.00 0.03 0.03 91 1013.6
20200228150318 17 0.0 0.0 0.00 0.03 0.03 94 1013.5
20200228145318 16 0.0 0.0 0.00 0.03 0.03 95 1013.4
20200228144317 16 0.0 0.0 0.00 0.03 0.03 95 1013.4
20200228143318 15 0.0 0.0 0.00 0.03 0.03 95 1013.2
20200228142317 15 0.0 0.0 0.00 0.03 0.03 95 1013.2
20200228141317 14 0.0 0.0 0.00 0.03 0.03 95 1013.0
20200228140317 13 0.0 0.0 0.03 0.03 0.03 94 1012.8
20200228135318 13 0.0 0.0 0.03 0.03 0.03 93 1012.7
20200228134318 13 0.0 0.0 0.03 0.03 0.03 93 1012.7
20200228133317 13 0.0 0.0 0.03 0.03 0.03 92 1012.4
20200228132317 13 0.0 0.0 0.03 0.03 0.03 91 1012.4
20200228131318 14 0.0 0.0 0.03 0.03 0.03 92 1012.4
20200228130317 14 0.0 0.0 0.00 0.00 0.00 91 1012.4
20200228125317 14 0.0 0.0 0.00 0.00 0.00 93 1012.3
20200228124317 14 0.0 0.0 0.00 0.00 0.00 91 1012.3
20200228123317 14 0.0 0.0 0.00 0.00 0.00 91 1012.1
20200228122317 15 0.0 0.0 0.00 0.00 0.00 91 1012.1
20200228121317 15 0.0 0.0 0.00 0.00 0.00 92 1011.9
20200228120317 15 0.0 0.0 0.00 0.00 0.00 91 1012.0
20200228115317 15 0.0 0.0 0.00 0.00 0.00 91 1011.9
20200228114317 15 0.0 0.0 0.00 0.00 0.00 92 1011.8
20200228113317 15 0.0 0.0 0.00 0.00 0.00 92 1011.7
20200228112317 14 0.0 0.0 0.00 0.00 0.00 93 1011.6
20200228111317 14 0.0 0.0 0.00 0.00 0.00 93 1011.7
20200228110317 14 0.0 0.0 0.00 0.00 0.00 92 1011.6
20200228105317 14 0.0 0.0 0.00 0.00 0.00 94 1011.6
20200228104317 14 0.0 0.0 0.00 0.00 0.00 94 1011.8
20200228103317 13 0.0 0.0 0.00 0.00 0.00 94 1011.9
20200228102317 13 0.0 0.0 0.00 0.00 0.00 95 1012.0
20200228101317 13 0.0 0.0 0.00 0.00 0.00 94 1011.8
20200228100317 13 0.0 0.0 0.00 0.00 0.00 95 1011.9
20200228095318 13 0.0 0.0 0.00 0.00 0.00 95 1011.9